User: anonymous   Login
Location: Frankfurt
(50.1170°N, 8.6830°E)
Time: 20:19:11
(UTC+02:00)
Language:

ISS - Orbit

View from above orbital plane
View from above orbital plane
View from above satellite
View from above satellite

Ground track
Ground track

The orbit data is extracted from the following two-line orbital elements,

1 25544U 98067A   20294.50417795  .00000572  00000-0  18344-4 0  9993
2 25544  51.6436  88.3920 0001398  52.1008  54.4538 15.49316145251448
Epoch (UTC): 20 October 2020 12:06:00
Eccentricity: 0.0001398
inclination: 51.6436°
perigee height: 418 km
apogee height: 419 km
right ascension of ascending node: 88.3920°
argument of perigee: 52.1008°
revolutions per day: 15.49316145
mean anomaly at epoch: 54.4538°
orbit number at epoch: 25144

The dashed part of the orbit path shows where the satellite is in the earth's shadow,  

DLR